COSMOS 1275 DEB, 13462

Orbit data source: Space-Track

COSMOS 1275 DEB, 13462 is space debris in LEO originally from a launch on Thu, 04 Jun 1981 UTC launched from the Plesetsk Missile And Space Complex (PKMTR). Debris objects in space refer to the collection of defunct objects orbiting the Earth. Examples of debris include non-operational satellites, rocket bodies, and fragments generated from explosions, collisions, or faulty payload assembly.

Loading next visibility...
Identifier
13462, 1981-053FJ
Orbit
LEO
Country
Flag of CISCIS
Related business
Manufacturer
Unknown
Mission
Spacecraft
Bus & Motor
Unknown
Mass
Unknown
Launch date (UTC)
1981-06-04 (44 years ago)
Launch vehicle
Unknown
Launch site
Plesetsk Missile And Space Complex (PKMTR)
Object type
Payload
Rocket body
Debris
Shape & HBR
Unknown shape, 0.1 m
Radar Cross Section
Small (<0.1 m²)

Expand to show TLE details & history
Last TLE update: 23 hours ago

TLE from 23 hours ago
0 COSMOS 1275 DEB
1 13462U 81053FJ  25301.52768697  .00003502  00000-0  35001-2 0  9995
2 13462  82.8156 220.0149 0162622 125.4768 357.2917 13.71920273155604
Epoch: 2025-10-28T12:39Z
TLE epoch observation values (Epoch: 2025-10-28T12:39:52.154Z)
Latitude
56.72496°
Longitude
161.91872°
Altitude
882.418 km
Speed
7.477 km/s
True Right ascension
01h 55m 59s
True Declination
56° 34' 11"
Sunlit
Object was in full shadow at epoch
Visualization orbit readout
Latitude
Unknown
Longitude
Unknown
Altitude
Unknown
Speed
Unknown
Apparent Right ascension
Unknown
Apparent Declination
Unknown
Sunlit
N/A
Visualization observer readout
Local Sidereal Time
06:49:26
Azimuth
Unknown
Elevation
Unknown
Doppler factor
Unknown
Orbital elements
Apogee altitude
1,109.661 km
Perigee altitude
870.022 km
Semi-major axis
7,367.979 km
Eccentricity
0.01626
Inclination
82.8156°
RAAN
220.0149°
Arg. of periapsis
125.4768°
True anomaly
357.20182°
Mean anomaly
357.2917°
Eccentric anomaly
357.24695°
Mean motion
3.43179 °/min
Orbital period
104.9 mins
BSTAR
0.0035001
Loading maneuver chart data...
Computing Atmospheric mass density...
Loading historical data...
Loading historical data...
Loading historical data...
Loading historical data...
Loading historical data...
Loading historical data...
Loading historical data...

Documentation

Showing up to 5 results
|